DAL2512 KMSP-KLGA

Flight info

Callsign DAL2512
Flight time N/A
Altitude 37000
Route COULT7 DLL GERBS Q186 WEVEL ETG MIP4
Aircraft B739/M-SDE2E3FGHIRWXY/LB1

Departure

Time 2026-05-05 17:09
Airport Minneapolis–Saint Paul International Airport / Wold–Chamberlain Field (KMSP)

Arrival

Time N/A
Airport LaGuardia Airport (KLGA)
Time Latitude Longitude Altitude Speed Heading
2026-05-05 16:48 44.88042 -93.20985 824 ft 0 kts 33°
2026-05-05 17:00 44.88027 -93.20999 824 ft 4 kts 32°
2026-05-05 17:00 44.88004 -93.21018 824 ft 4 kts 30°
2026-05-05 17:00 44.87986 -93.21034 824 ft 4 kts 39°
2026-05-05 17:00 44.87974 -93.21058 824 ft 4 kts 108°
2026-05-05 17:01 44.87986 -93.21089 824 ft 3 kts 121°
2026-05-05 17:01 44.87988 -93.21094 824 ft 0 kts 121°
2026-05-05 17:04 44.87987 -93.21091 824 ft 3 kts 121°
2026-05-05 17:04 44.87946 -93.21037 824 ft 11 kts 148°
2026-05-05 17:05 44.87881 -93.20980 825 ft 11 kts 148°
2026-05-05 17:05 44.87823 -93.20912 825 ft 12 kts 126°
2026-05-05 17:05 44.87768 -93.20784 823 ft 17 kts 121°
2026-05-05 17:05 44.87701 -93.20631 825 ft 19 kts 121°
2026-05-05 17:06 44.87630 -93.20464 821 ft 20 kts 121°
2026-05-05 17:06 44.87559 -93.20301 824 ft 19 kts 121°
2026-05-05 17:06 44.87491 -93.20142 823 ft 18 kts 121°
2026-05-05 17:06 44.87477 -93.20110 825 ft 0 kts 121°
2026-05-05 17:07 44.87463 -93.20081 823 ft 9 kts 131°
2026-05-05 17:07 44.87402 -93.20087 827 ft 10 kts 209°
2026-05-05 17:07 44.87368 -93.20155 826 ft 9 kts 283°
2026-05-05 17:07 44.87378 -93.20181 826 ft 0 kts 301°
2026-05-05 17:08 44.87447 -93.20341 820 ft 52 kts 301°
2026-05-05 17:08 44.87752 -93.21045 824 ft 114 kts 301°
2026-05-05 17:09 44.88259 -93.22191 875 ft 156 kts 303°
2026-05-05 17:09 44.88845 -93.23503 1503 ft 154 kts 302°
2026-05-05 17:09 44.89435 -93.24842 2076 ft 166 kts 301°
2026-05-05 17:09 44.90074 -93.26341 2361 ft 189 kts 300°
2026-05-05 17:10 44.90773 -93.28039 2655 ft 207 kts 300°
2026-05-05 17:10 44.91525 -93.29892 2886 ft 229 kts 300°
2026-05-05 17:10 44.92416 -93.31832 3398 ft 241 kts 315°
2026-05-05 17:10 44.93883 -93.32905 4287 ft 244 kts 343°
2026-05-05 17:11 44.95601 -93.33082 5056 ft 253 kts
2026-05-05 17:11 44.97271 -93.32255 5889 ft 261 kts 28°
2026-05-05 17:11 44.98585 -93.30424 6614 ft 274 kts 55°
2026-05-05 17:11 44.99190 -93.27821 7264 ft 289 kts 84°
2026-05-05 17:12 44.98935 -93.24997 8008 ft 295 kts 107°
2026-05-05 17:12 44.98117 -93.22314 8698 ft 301 kts 117°
2026-05-05 17:12 44.97115 -93.19687 9388 ft 306 kts 119°
2026-05-05 17:12 44.96067 -93.17053 10084 ft 310 kts 120°
2026-05-05 17:13 44.94988 -93.14332 10386 ft 328 kts 119°
2026-05-05 17:13 44.93848 -93.11418 10576 ft 350 kts 119°
2026-05-05 17:13 44.92655 -93.08321 10792 ft 367 kts 118°
2026-05-05 17:13 44.91428 -93.05105 11317 ft 376 kts 118°
2026-05-05 17:14 44.90188 -93.01829 11935 ft 381 kts 118°
2026-05-05 17:14 44.88936 -92.98509 12590 ft 385 kts 118°
2026-05-05 17:14 44.87674 -92.95160 13247 ft 390 kts 119°
2026-05-05 17:14 44.86392 -92.91758 13880 ft 396 kts 119°
2026-05-05 17:15 44.85095 -92.88319 14495 ft 399 kts 119°